Wind_Speed
19 18 17 16 14 14 14 13 13 14 15 16 16 18 20 21 22 14 9 14 4 2 6 2 3 2 3 1 4 2 3 2 1 4 3 3 2 2 3 1 1 3 3 5 3 5 6 3 1 4 7 9 13 12
17 16 16 14 13 13 13 13 13 14 14 14 15 15 16 16 17 16 5 14 11 4 4 4 6 7 5 0 3 2 1 1 3 2 2 2 3 2 1 7 3 5 6 4 7 7 3 2 7 10 3 10 11 3
16 15 14 13 13 13 14 13 12 14 14 13 12 14 14 15 15 15 11 12 4 3 4 2 2 4 8 3 4 3 2 1 2 1 0 2 6 1 5 6 5 5 4 4 5 5 12 10 11 10 12 7 4 1
13 12 12 12 11 12 13 13 13 13 14 14 14 14 13 13 13 14 14 10 3 3 3 2 3 5 5 9 3 7 5 2 2 1 2 4 5 4 5 4 5 9 1 9 15 12 10 7 7 10 8 5 7 7
14 13 12 11 11 10 10 11 13 14 15 16 15 15 15 13 12 12 5 6 9 3 3 5 2 3 7 8 5 4 3 2 2 2 4 4 3 2 3 3 7 3 2 3 5 7 2 4 8 7 7 10 11 9
13 12 11 11 11 11 11 12 13 14 16 17 17 16 15 14 11 7 1 1 10 7 1 4 1 4 5 8 4 5 3 1 1 2 2 3 1 2 3 3 1 2 2 1 1 3 3 9 8 4 8 10 10 9
13 12 12 11 11 11 12 14 14 15 16 18 19 19 18 14 7 2 1 3 9 4 1 3 4 2 5 3 2 2 1 1 1 2 2 2 2 4 2 3 2 1 2 1 2 4 3 1 5 10 8 12 12 9
12 12 11 10 11 12 13 14 16 17 17 19 20 21 11 6 6 2 2 7 7 1 1 2 3 4 5 3 2 3 2 1 1 2 1 2 2 1 4 3 4 2 2 2 3 2 6 9 9 7 8 11 10 7
12 12 11 11 12 14 15 16 16 18 20 21 20 9 2 2 2 4 15 8 4 1 1 1 2 2 3 1 2 1 1 2 1 2 1 2 2 5 6 5 4 3 2 4 8 7 5 5 7 6 6 7 8 8
10 10 10 12 12 13 14 15 16 19 20 14 6 2 2 3 13 6 1 1 2 3 1 2 1 3 1 2 2 3 1 2 2 0 2 2 3 5 6 6 6 6 5 0 3 7 8 11 7 7 4 6 6 8
9 10 12 13 13 13 15 16 16 18 9 7 7 2 6 9 3 4 1 1 2 1 3 3 4 3 1 2 3 0 2 1 2 0 2 1 3 3 2 4 4 7 8 8 9 9 7 8 8 8 6 6 10 13
11 11 12 12 12 13 14 16 14 10 7 6 8 8 4 4 2 2 2 2 2 2 2 2 1 3 1 1 2 0 2 1 4 1 1 3 3 4 4 5 6 7 8 10 9 10 10 8 9 8 10 10 11 16
12 13 13 13 13 14 12 10 12 11 13 1 1 2 2 2 1 2 2 1 2 2 2 1 2 1 1 1 2 1 3 4 0 2 3 3 3 5 5 4 6 13 11 13 14 13 10 6 7 7 10 14 16 14
13 13 14 14 12 7 6 8 8 13 5 2 2 5 2 3 4 4 3 2 2 2 2 2 2 2 2 2 1 3 1 1 2 2 4 1 3 4 5 2 3 9 13 12 10 8 8 9 11 12 11 12 13 14
14 14 16 13 3 5 7 10 11 10 3 1 1 4 5 3 3 3 2 3 3 2 2 1 3 2 2 3 3 1 2 4 5 4 1 3 4 5 7 9 9 9 9 10 12 11 11 12 11 12 12 13 12 15
14 15 7 6 7 7 13 16 10 4 2 2 4 4 3 2 3 3 3 4 4 3 2 0 3 2 4 3 3 6 3 6 3 1 1 5 7 7 8 9 11 12 12 12 12 12 13 12 13 14 14 12 14 15
13 7 9 11 15 17 14 6 2 4 4 4 5 5 3 3 5 4 4 3 7 4 3 2 4 7 1 3 3 5 5 3 1 2 3 5 4 7 11 12 13 14 13 12 12 12 12 13 14 14 14 17 17 17
18 21 21 19 16 14 10 9 6 4 6 6 5 4 4 4 3 4 4 5 4 3 3 5 2 4 5 5 5 4 2 1 2 2 4 4 7 10 12 12 13 14 14 14 14 13 12 12 13 13 17 19 20 17
21 21 22 20 16 8 3 4 6 4 9 3 3 2 3 3 8 14 6 7 9 3 2 2 5 4 5 4 3 1 1 2 3 5 5 3 9 10 10 10 10 12 14 15 14 14 14 14 13 15 16 17 17 19
23 23 23 20 16 8 4 4 6 4 3 5 2 3 3 4 1 2 2 4 4 3 4 4 5 2 2 3 3 2 2 3 3 4 3 4 9 11 9 9 9 10 10 12 12 15 16 16 15 17 18 20 19 20
23 24 19 14 9 14 7 3 3 3 3 4 2 4 4 1 3 3 3 4 3 3 4 1 3 3 3 7 6 5 5 7 3 3 4 6 12 10 11 10 9 9 9 10 11 14 16 16 19 19 19 19 20 22
20 17 12 13 8 8 6 13 4 2 3 2 2 3 3 3 3 3 4 3 3 2 2 2 2 2 2 3 4 5 4 5 7 9 10 10 5 9 9 12 11 10 10 10 11 14 17 18 20 20 19 21 22 22
23 17 10 12 6 6 5 7 5 5 5 4 3 4 3 4 3 3 3 2 2 3 2 2 2 2 2 3 3 5 5 6 7 9 10 10 12 10 9 9 9 10 10 10 13 15 16 20 19 21 21 21 22 22
22 8 4 5 8 5 2 4 1 2 1 3 4 5 4 3 2 3 2 2 2 3 5 6 6 3 3 3 5 6 9 8 9 11 9 10 9 8 10 8 8 9 7 10 14 15 17 17 20 20 20 21 21 22
5 4 4 5 2 2 2 3 3 1 3 2 3 3 3 1 1 2 3 2 1 2 3 6 7 6 3 2 5 7 7 8 10 12 14 9 7 12 9 7 8 10 7 12 13 18 19 19 19 19 21 19 23 24
3 8 7 7 5 5 4 4 5 3 2 2 2 4 2 2 2 3 2 1 1 2 4 4 4 4 4 6 7 9 11 14 15 9 13 9 14 10 9 8 9 14 10 16 14 18 19 20 22 23 21 22 23 24
5 5 3 4 3 4 4 3 2 2 4 4 4 5 4 3 3 2 2 2 2 3 4 4 4 3 5 9 12 13 15 14 12 16 20 21 16 9 9 11 9 14 21 14 17 19 16 20 22 19 21 22 21 21
3 5 5 8 4 2 3 3 4 5 3 4 5 4 6 4 2 1 2 1 3 3 4 5 4 6 11 12 13 14 15 15 17 17 14 9 5 12 9 7 17 16 17 18 16 17 19 23 17 19 22 22 24 21
3 5 4 4 4 3 3 4 3 2 3 2 2 3 2 2 1 1 1 2 3 4 7 9 8 10 9 11 13 15 17 18 15 5 5 6 9 17 18 23 22 19 20 21 18 14 17 20 17 18 19 19 19 18
4 4 3 4 2 3 2 0 2 2 3 1 2 3 2 2 1 2 2 3 5 6 6 7 9 12 14 17 22 26 23 20 15 12 6 8 14 25 26 25 24 25 24 24 23 20 17 17 19 20 20 20 20 18
3 3 3 1 3 3 2 10 6 3 3 2 2 2 2 3 3 4 5 6 5 3 4 7 10 13 15 19 22 22 22 25 23 23 23 24 27 28 28 28 28 28 28 28 24 21 17 18 19 20 20 20 21 20
3 2 1 3 4 3 8 5 3 2 3 3 2 2 2 1 2 2 8 11 9 8 5 11 18 22 20 22 25 26 27 28 25 25 25 25 27 27 28 31 28 24 23 22 22 20 16 17 19 20 19 19 21 21
2 1 1 3 4 5 4 5 4 5 2 2 2 1 1 1 4 3 5 11 11 12 12 16 22 25 25 27 29 29 25 24 24 23 24 24 24 24 24 23 22 24 18 16 14 14 18 20 20 21 20 19 20 21
Wind_Direction
84 81 77 72 65 56 51 43 38 33 30 26 19 17 17 17 21 30 40 21 16 257 281 347 0 357 328 313 274 4 286 127 156 217 245 259 265 294 307 46 146 219 195 221 226 242 273 159 118 307 342 310 308 290
83 81 75 67 61 53 46 41 34 28 25 21 14 12 12 9 5 12 4 357 337 229 289 309 312 303 260 190 277 230 309 169 218 225 209 281 254 229 270 279 187 259 221 274 213 279 318 337 303 344 329 289 300 25
77 71 67 60 52 42 33 30 24 20 16 11 4 8 7 4 2 353 353 352 334 330 301 340 65 26 346 320 232 249 230 204 165 318 35 273 259 190 253 240 246 232 183 233 284 257 338 3 358 336 342 5 46 342
74 67 60 53 46 41 35 29 22 13 5 3 1 357 356 354 355 351 347 354 349 283 309 310 4 336 320 343 308 256 304 319 357 212 263 255 255 222 259 276 262 285 201 267 280 299 335 7 29 357 350 285 270 277
62 57 51 43 35 27 20 11 5 360 358 353 350 347 344 345 343 340 24 53 61 18 317 291 328 275 313 334 312 295 255 222 209 212 225 245 264 285 259 276 262 306 295 310 305 4 330 315 2 322 319 323 331 322
49 41 34 25 18 11 2 353 347 345 348 345 342 337 331 328 330 326 79 50 17 6 310 301 332 274 315 346 4 22 16 323 283 284 286 285 352 283 248 240 69 279 348 281 16 332 243 261 282 24 325 322 323 324
31 25 19 13 8 2 358 353 347 344 342 339 334 327 322 318 306 231 139 340 318 323 256 286 303 332 327 322 26 0 337 264 259 278 249 282 285 337 260 250 146 300 181 126 351 324 260 314 319 324 310 312 315 313
12 10 7 5 1 356 353 350 347 341 338 335 328 328 342 73 124 98 15 338 336 350 243 277 282 310 7 324 329 10 341 293 243 297 269 281 289 272 255 238 263 255 285 195 307 278 251 290 295 309 329 329 330 329
354 355 359 357 351 346 342 341 339 337 333 328 326 333 90 96 75 315 307 311 261 229 259 206 254 274 358 329 265 287 344 278 45 247 228 277 201 232 230 217 220 196 172 271 312 291 285 254 298 322 335 324 321 318
344 352 345 340 340 342 346 345 343 342 340 337 343 10 34 5 317 318 64 53 127 344 206 244 231 271 341 351 310 308 349 320 295 27 303 230 264 269 256 246 265 262 265 169 325 318 301 304 306 301 287 289 282 292
343 336 337 338 342 346 343 338 332 330 333 1 8 319 327 332 345 26 279 79 329 248 195 241 215 272 147 278 288 258 311 334 276 108 282 249 266 256 283 287 225 218 235 238 249 268 271 266 282 296 296 292 304 300
324 327 329 333 333 334 335 342 346 341 327 308 293 294 291 21 50 56 313 314 232 246 200 219 245 233 271 287 254 321 267 241 251 357 285 253 251 272 299 293 301 258 246 265 282 285 304 289 280 280 295 304 304 310
326 326 326 325 325 329 330 341 343 345 326 317 338 292 342 342 330 181 242 236 264 202 231 227 270 212 225 243 246 272 245 235 45 234 240 247 292 303 315 300 311 322 314 316 314 312 314 308 310 304 308 316 322 314
319 323 321 325 323 328 342 347 2 359 331 49 46 311 192 245 240 205 214 224 239 208 201 204 260 224 198 229 221 247 245 293 258 244 233 201 265 292 315 311 320 315 318 320 329 346 340 335 330 326 325 323 320 318
319 319 318 320 290 306 324 333 328 317 283 276 99 243 224 237 245 244 276 283 224 220 182 228 249 232 201 244 216 292 247 243 227 237 196 354 335 325 349 350 346 352 352 350 349 345 341 334 329 324 328 325 325 323
310 311 293 300 305 297 320 319 327 267 211 211 228 252 202 260 248 209 206 250 198 174 131 208 251 243 222 213 192 221 202 231 253 212 19 343 338 360 355 347 343 342 343 343 343 340 333 333 331 322 321 329 331 326
295 251 284 284 302 307 304 299 253 236 234 216 237 225 215 281 247 257 187 226 158 154 205 184 225 223 96 222 239 197 219 269 53 348 348 346 0 355 344 337 338 334 338 342 339 339 334 332 331 332 335 333 328 322
279 284 287 287 291 296 267 207 212 239 238 222 229 223 199 229 236 241 212 172 156 195 180 214 183 198 225 211 238 237 233 309 320 5 339 14 22 2 351 341 342 342 340 338 336 331 334 341 343 339 332 329 324 324
283 285 284 278 273 235 241 228 204 247 222 209 249 232 217 244 240 250 251 187 207 177 216 210 238 226 230 228 256 132 31 339 313 323 318 40 7 354 343 347 344 348 344 340 340 339 336 339 333 332 329 327 322 326
280 281 283 277 257 199 226 231 212 255 217 223 207 210 214 225 234 212 187 173 168 178 200 221 224 271 14 29 24 12 16 360 321 319 319 353 343 335 338 343 342 340 341 338 338 343 342 338 340 337 330 329 329 322
277 273 277 264 245 226 230 200 231 221 214 216 219 175 236 285 242 222 215 152 176 212 223 155 105 81 47 83 57 41 41 11 350 327 314 319 338 327 329 335 337 338 341 339 340 339 341 335 331 329 328 326 325 321
267 259 240 227 233 226 230 199 201 168 192 238 180 196 234 241 234 211 142 184 215 67 49 46 51 19 67 73 77 80 52 11 338 327 325 329 330 324 331 332 335 336 337 341 343 336 330 329 330 330 328 326 324 320
277 254 222 201 222 222 242 169 197 191 219 216 155 204 229 219 209 138 186 65 78 31 40 69 70 57 47 61 48 20 22 12 351 328 323 326 317 311 333 330 333 328 329 339 340 334 329 330 331 333 330 329 325 321
261 222 217 217 204 232 116 200 232 214 207 196 193 227 240 214 132 202 172 63 62 67 58 25 22 37 63 46 25 358 351 348 337 323 324 320 313 325 330 317 323 322 324 334 337 335 330 328 331 330 329 326 323 321
231 220 240 240 3 324 266 318 311 271 275 310 236 268 30 330 265 43 48 52 48 57 33 19 28 20 353 343 351 345 351 345 330 311 313 320 309 317 312 303 319 331 320 335 336 333 329 329 329 328 328 328 327 328
240 20 22 354 340 350 341 326 343 331 285 316 5 323 322 318 356 54 68 101 39 24 14 8 354 341 349 5 338 329 324 327 323 302 314 317 313 295 288 302 312 324 331 327 322 327 326 326 325 325 325 330 332 331
44 353 336 27 304 287 288 270 293 342 10 10 350 327 333 342 52 69 115 51 35 7 354 352 348 347 323 322 331 331 326 322 308 299 308 313 310 289 277 280 294 311 327 319 320 326 319 320 317 317 322 328 332 332
45 30 348 320 300 265 283 318 21 17 15 355 331 334 341 0 25 58 58 55 33 35 15 0 0 350 342 336 331 327 333 331 325 322 320 312 293 315 281 283 308 311 312 326 316 314 323 321 311 332 331 328 331 342
30 346 310 301 309 18 41 17 9 32 359 310 275 269 304 28 355 147 124 81 52 46 39 25 14 353 351 344 345 345 343 338 335 331 313 302 306 311 321 317 316 314 319 320 317 307 315 321 335 332 325 329 335 340
326 347 2 339 4 284 273 115 266 303 302 286 289 305 299 289 257 203 165 116 96 74 49 16 354 344 336 335 332 332 338 342 321 288 264 285 293 309 313 314 313 311 313 314 311 304 304 314 319 325 334 341 346 341
337 3 13 290 261 258 267 310 296 290 332 335 338 185 256 307 306 218 195 181 184 217 296 326 334 336 330 331 324 316 312 324 320 312 306 301 302 303 305 306 305 304 300 302 295 285 287 303 312 315 319 327 335 337
5 79 49 306 291 300 2 6 313 347 330 4 302 335 319 311 276 227 210 210 223 249 293 329 322 317 319 320 324 319 311 307 311 311 310 306 302 305 305 299 299 302 292 288 286 271 274 294 301 304 307 314 322 323
5 35 298 323 314 330 346 344 358 337 344 329 300 256 239 223 240 277 214 223 242 270 290 312 322 322 318 315 316 317 318 317 317 311 307 307 307 307 314 314 302 296 287 292 291 268 280 284 289 295 299 307 313 318
Height
882 882 883 882 883 883 881 881 880 879 876 874 873 871 868 865 862 860 862 861 861 859 848 846 846 844 842 842 839 842 840 840 840 834 829 820 826 818 824 828 831 825 824 823 819 813 803 804 805 806 806 804 803 798
886 886 884 885 886 884 884 883 881 880 879 876 874 872 870 867 864 863 863 862 860 859 851 849 847 847 848 848 848 844 842 842 837 834 836 834 825 826 825 812 829 818 810 801 809 785 793 802 804 804 808 805 800 799
889 889 888 888 887 887 884 884 884 881 879 877 876 873 870 868 866 865 863 860 858 858 851 848 847 849 848 847 846 845 841 840 841 841 839 833 828 826 816 811 811 812 813 811 811 790 795 803 807 807 805 804 806 805
892 891 890 889 889 888 887 886 884 882 880 877 874 872 870 868 865 865 863 862 861 860 859 851 849 847 847 846 844 844 843 842 842 841 838 834 828 819 811 812 813 804 813 801 797 795 807 807 806 806 807 805 802 800
894 893 892 890 889 888 887 886 884 882 878 876 874 872 870 868 865 864 862 862 862 864 860 850 848 847 845 845 844 842 841 841 840 839 833 827 822 822 813 816 808 806 807 803 801 808 811 810 807 806 804 800 800 798
896 895 892 891 890 888 886 884 882 880 878 875 873 871 869 867 864 863 863 864 861 861 860 856 850 846 845 844 843 843 843 843 841 836 831 827 825 823 812 806 812 815 813 811 809 811 810 806 803 806 805 801 799 797
896 894 893 892 890 889 887 884 881 877 875 872 871 868 865 863 862 863 862 863 861 860 860 855 849 845 844 843 844 845 842 840 840 836 832 831 829 828 814 810 810 814 813 812 812 812 806 805 804 804 803 800 798 796
898 896 894 892 890 888 884 881 879 877 873 870 866 863 861 861 862 863 862 862 861 861 861 856 850 847 845 841 839 846 844 841 839 835 835 832 832 830 819 810 815 814 813 814 810 810 809 807 804 802 801 798 794 792
898 896 894 891 889 886 883 880 877 873 871 867 863 860 861 861 862 862 860 859 861 865 858 857 853 847 847 846 847 845 846 836 842 837 835 837 826 820 807 811 814 810 810 809 808 808 806 804 801 799 799 796 795 792
896 895 894 891 887 884 881 878 876 873 868 863 860 861 863 864 863 863 860 860 858 861 861 860 859 852 850 846 841 846 847 840 836 836 840 833 821 813 814 813 812 812 812 814 810 804 799 797 798 797 799 797 795 792
895 893 891 888 885 882 881 878 874 871 867 864 865 865 864 862 862 863 863 860 868 861 860 855 855 849 851 846 843 848 838 842 838 832 831 828 821 810 812 813 808 807 807 806 806 802 801 801 798 796 794 793 792 789
893 891 888 886 884 881 879 876 873 871 870 868 869 866 865 864 865 868 876 872 867 852 852 851 850 852 850 850 848 848 843 850 834 846 838 820 812 812 814 812 807 805 804 802 800 799 797 796 795 794 792 790 789 786
889 888 885 884 882 878 876 875 874 871 869 866 866 866 866 869 869 871 869 860 860 853 851 851 847 850 851 851 848 850 841 835 844 839 820 813 814 812 812 811 806 804 804 803 800 797 795 794 793 792 789 787 784 781
888 884 883 881 880 876 875 874 873 871 869 869 872 874 868 869 871 863 857 850 849 852 851 851 848 849 848 847 846 839 838 844 835 834 816 812 816 817 813 812 811 806 803 801 798 796 794 794 793 790 787 784 782 778
884 882 880 878 876 875 874 874 872 872 870 873 873 870 866 858 862 859 861 859 850 850 849 848 848 848 844 844 844 843 841 833 825 810 810 815 817 816 813 811 809 807 805 803 800 798 796 794 791 788 785 783 779 775
881 879 878 877 875 874 873 871 871 871 868 869 866 861 856 859 849 856 855 850 845 846 848 848 843 844 838 840 842 835 836 826 806 815 815 816 816 817 816 814 812 810 807 803 801 799 796 793 791 787 783 780 777 773
878 876 874 873 871 870 870 869 869 867 862 859 852 849 850 850 845 838 840 838 839 842 840 844 839 835 844 835 836 830 821 803 812 814 818 818 818 819 817 814 812 810 807 804 801 798 795 793 790 786 781 778 775 771
871 870 869 867 867 866 865 864 863 858 850 847 846 840 841 837 835 832 832 834 836 836 837 831 829 831 821 823 813 808 813 816 816 818 819 819 820 820 818 815 813 811 809 806 803 799 795 790 786 784 781 778 774 769
865 864 863 863 862 861 858 854 853 846 838 841 838 837 835 830 824 820 821 824 825 826 826 823 820 811 808 804 804 813 816 817 817 818 819 819 819 818 817 815 813 810 809 807 803 799 796 792 789 785 781 776 772 768
857 857 856 855 855 851 850 845 843 836 833 828 830 829 825 819 815 815 817 819 821 822 822 815 806 804 815 818 820 820 820 821 820 817 815 817 817 817 814 812 810 808 806 805 802 800 795 792 788 785 781 776 771 766
848 846 848 849 846 845 839 833 833 828 825 825 820 820 815 816 812 810 809 814 816 811 805 811 817 820 821 821 823 823 825 825 824 824 821 816 816 817 815 811 809 806 804 803 800 798 795 792 788 784 779 775 771 765
838 838 837 837 836 831 823 819 820 819 821 815 816 814 813 809 806 805 808 808 805 815 819 820 822 823 822 823 822 822 824 824 826 824 822 819 815 815 812 811 809 808 805 802 800 798 795 791 786 782 778 772 767 761
832 829 826 824 823 817 810 812 811 810 807 805 810 807 804 803 799 803 802 813 821 824 823 823 823 823 825 825 826 827 824 823 822 823 822 820 818 815 811 809 808 807 805 802 800 796 793 789 784 780 776 770 765 758
823 818 814 809 805 803 809 806 805 806 805 804 801 797 797 796 801 799 793 820 825 825 826 827 825 823 823 824 825 827 827 826 824 822 820 819 816 813 810 808 807 805 803 801 798 794 791 787 783 778 773 768 763 757
811 804 803 796 798 800 804 809 811 809 800 804 795 786 792 800 791 794 812 827 827 827 829 828 826 827 827 826 826 827 827 827 825 822 818 815 813 811 808 806 804 802 800 798 795 792 788 784 780 775 771 767 761 755
807 828 827 827 821 816 815 807 806 805 801 798 801 804 800 797 792 814 824 829 830 831 831 830 830 829 828 827 827 827 826 825 822 819 814 813 811 809 807 804 802 799 797 795 792 789 785 781 777 773 768 764 760 754
837 840 836 835 833 827 820 813 811 811 814 816 816 811 807 801 811 826 831 832 832 832 832 832 831 831 830 828 826 825 823 821 819 815 811 808 806 805 804 802 800 797 794 791 789 786 782 779 774 770 766 762 758 754
847 851 850 844 838 827 824 820 825 827 827 830 824 817 815 815 821 831 832 833 833 833 832 832 831 830 829 827 825 823 820 817 814 810 806 804 802 801 799 798 796 794 791 788 785 782 779 775 771 768 764 760 755 751
857 858 855 852 844 839 842 841 838 839 843 839 836 828 828 832 834 833 834 834 834 834 833 832 831 830 829 827 824 822 818 814 811 809 806 803 799 796 795 792 789 787 785 782 780 778 776 772 769 765 761 758 753 748
872 867 867 868 864 855 851 853 852 847 845 844 843 839 836 834 834 833 834 834 834 833 833 832 830 828 826 823 819 815 814 812 809 807 804 800 796 792 789 786 784 781 779 776 773 771 770 768 765 761 758 754 750 746
874 873 873 873 866 857 855 852 848 847 847 846 844 844 840 837 833 832 833 833 833 833 832 830 828 826 823 820 817 813 808 805 803 801 798 794 790 786 783 780 776 774 771 769 767 765 764 763 760 757 754 751 747 744
879 885 883 874 862 856 854 855 856 855 852 849 846 845 840 837 836 831 830 831 831 831 829 828 825 822 820 816 813 809 805 800 797 794 791 787 783 780 776 771 769 766 763 761 760 759 759 757 755 752 750 747 744 741
886 889 889 887 873 863 863 863 857 856 855 852 848 847 846 842 839 829 828 828 829 828 826 825 822 818 814 811 806 802 798 794 791 788 785 781 777 773 769 766 761 758 756 756 754 754 753 751 749 747 745 742 740 737